Weather Roundup
Issued by NWS

Home | Current Version | Previous Version | Graphics & Text | Print | Product List | Glossary Off
Versions: 1 2 3 4 5 6 7 8 9 10 11 12 13 14 15 16 17 18 19 20 21 22 23 24 25 26 27 28 29 30 31 32 33 34 35 36 37 38 39 40 41 42 43 44 45 46 47 48 49 50

000
NZUS93 KARX 291210
HRRWXR

CURRENT HOURLY OBSERVATIONS ACROSS
MUCH OF THE UPPER MISSISSIPPI VALLEY
NATIONAL WEATHER SERVICE LA CROSSE WI
700 AM CDT FRI AUG 29 2014


...SOUTHEAST MINNESOTA...


CITY           SKY/WX    TMP DP  RH WIND       PRES   REMARKS
ROCHESTER      CLOUDY    68  66  93 S8        29.86S FOG
ROCHESTER/MAYO CLOUDY    67  66  97 SE7       29.85S
WINONA         CLOUDY    63  63 100 SE8       29.86F
AUSTIN         CLOUDY    66  66 100 S7        29.84R
ALBERT LEA     RAIN      66  66 100 S8        29.82S
DODGE CENTER   CLOUDY    66  66 100 S6        29.85R
PRESTON        CLOUDY    66  67 100 CALM      29.87S FOG
OWATONNA       MOCLDY    68  64  88 SE3       29.82S
FARIBAULT      MOCLDY    70  64  83 SE5       29.83R
$$

...ELSEWHERE IN MINNESOTA...


CITY           SKY/WX    TMP DP  RH WIND       PRES   REMARKS
MINNEAPOLIS    CLOUDY    69  68  96 SE6       29.81R
INTNL FALLS    CLOUDY    60  59  96 CALM      29.84R
DULUTH         DRIZZLE   61  59  93 E9        29.85F FOG
RED WING       CLOUDY    68  66  94 SE7       29.83S
REDWOOD FALLS  CLOUDY    71  68  90 S15       29.76S
MANKATO        CLOUDY    70  63  78 S7        29.81R
WORTHINGTON    CLOUDY    66  64  94 S8        29.82S
FAIRMONT       CLOUDY    64  63  94 S6        29.81R
$$

...SOUTHWEST WISCONSIN...


CITY           SKY/WX    TMP DP  RH WIND       PRES   REMARKS
LA CROSSE      CLOUDY    66  64  93 E7        29.88S
PRAIRIE DU CHI MOCLDY    68  66  92 CALM      29.89R FOG
BOSCOBEL       MOCLDY    69  66  90 CALM      29.90R FOG
LONE ROCK      CLOUDY    71  66  84 E9        29.92F HAZE
PLATTEVILLE      N/A     66  65  97 CALM      29.94S
FORT MC COY    CLOUDY    63  61  94 CALM      29.92S
CAMP DOUGLAS   CLOUDY    63  63 100 SE2       29.93R
VIROQUA        CLOUDY    65  65 100 SE5       29.92S
WIS DELLS      CLOUDY    65  64  94 S8        29.93S FOG
$$

...ELSEWHERE IN WISCONSIN...


CITY           SKY/WX    TMP DP  RH WIND       PRES   REMARKS
MILWAUKEE      MOCLDY    70  66  87 S8        29.97S
MADISON        CLOUDY    67  64  90 S7        29.96R FOG
GREEN BAY      CLOUDY    63  62  97 E3        29.96F
EAU CLAIRE     CLOUDY    60  60 100 SE7       29.85F
BLACK RVR FLS  RAIN      60  60 100 CALM      29.91R
MEDFORD        LGT RAIN  58  57  99 SE8       29.92F
WAUSAU         CLOUDY    59  58  96 SE7       29.94S FOG
WIS RAPIDS     CLOUDY    62  60  93 E3        29.95S
MARSHFIELD     CLOUDY    61  59  93 SE7       29.92F FOG
RICE LAKE      CLOUDY    59  57  94 SE7       29.87S
$$

...NORTHEAST IOWA...


CITY           SKY/WX    TMP DP  RH WIND       PRES   REMARKS
WATERLOO       PTCLDY    67  66  97 S6        29.86S
DUBUQUE        FOG       67  67 100 SE8       29.93S VSB 1
DECORAH        CLOUDY    66  66 100 VRB5      29.88S FOG
MASON CITY     MOCLDY    67  66  97 S9        29.84F
CHARLES CITY   FOG       68  68 100 S10       29.87F VSB 3/4
OELWEIN        FOG       66  66 100 SE6       29.89S VSB 1
$$

...ELSEWHERE IN IOWA...


CITY           SKY/WX    TMP DP  RH WIND       PRES   REMARKS
DES MOINES     MOCLDY    69  66  90 SE8       29.85R
IOWA CITY      CLEAR     69  68  96 SE5       29.91S FOG
FORT DODGE     MOCLDY    66  64  94 SE5       29.83S
MARSHALLTOWN   PTCLDY    66  65  96 NW3       29.87R
CEDAR RAPIDS   PTCLDY    67  67 100 SE3       29.89S FOG
$$

...NORTHERN ILLINOIS...


CITY           SKY/WX    TMP DP  RH WIND       PRES   REMARKS
CHICAGO-OHARE  CLOUDY    72  64  76 S8        29.98S
DUPAGE         CLOUDY    70  67  90 SE7       29.98R
CHICAGO-MIDWAY CLOUDY    73  66  78 S9        29.99R
MOLINE         PTCLDY    71  67  87 S8        29.91S
ROCKFORD       MOCLDY    69  66  90 S7        29.97R
STERLING       PTCLDY    70  66  88 SE3       29.95R
PEORIA         MOCLDY    73  68  84 S10       29.97R
$$

NOTE: "FAIR" INDICATES FEW OR NO CLOUDS BELOW 12,000 FEET WITH NO
SIGNIFICANT WEATHER AND/OR OBSTRUCTIONS TO VISIBILITY. WIND
SPEEDS ARE IN MILES-PER-HOUR.



USA.gov is the U.S. government's official web portal to all federal, state and local government web resources and services.